GFSMA_sfc_rhum_276.txt.gz
RH
95 94 89 94 95 94 95 89 88 85 81 81 82 71 68 62 59 62 70 82 81 82 79 74 77 77 74 75 76 74 72 73 74 72 71 70 73 74 74 73 72 73 74
92 92 96 96 96 96 94 97 96 87 88 80 71 64 66 72 71 74 78 74 81 82 80 77 76 77 74 74 76 77 76 76 78 77 78 78 78 78 74 74 78 77 80
89 90 93 96 86 94 94 95 94 94 92 78 86 77 73 69 69 87 91 89 75 81 80 80 79 80 79 76 75 80 82 81 80 81 82 83 82 81 79 79 79 79 81
89 90 86 92 93 96 97 96 97 94 96 94 85 83 88 84 77 87 92 91 90 78 84 77 75 77 81 80 80 81 83 83 83 84 83 83 84 84 84 84 83 84 84
79 84 90 86 83 84 89 94 95 96 88 90 86 90 91 92 94 82 91 91 91 92 93 80 78 86 75 73 82 83 83 84 84 85 86 85 86 86 86 87 86 86 87
77 81 86 90 88 89 93 94 92 94 92 93 83 75 92 98 97 97 97 94 96 95 96 96 96 96 92 89 80 81 82 81 84 84 84 85 87 87 87 88 88 89 88
79 84 91 90 89 92 90 89 92 92 96 96 98 90 93 95 91 98 98 96 93 92 96 98 99 98 96 87 93 83 77 78 80 82 83 84 84 88 88 88 89 89 88
89 87 90 90 89 94 94 90 92 95 95 94 97 97 95 94 96 92 98 91 94 95 93 89 94 94 97 98 97 89 82 82 80 82 82 83 85 84 87 90 90 91 90
85 89 90 91 89 96 96 93 95 94 94 92 92 94 94 94 97 95 87 97 98 97 94 96 89 92 96 98 92 92 90 89 84 81 83 83 85 85 86 84 89 90 90
86 90 93 93 96 97 96 95 98 95 95 94 97 97 94 94 95 94 95 92 96 92 96 98 94 95 96 97 89 95 90 94 89 84 82 82 84 86 86 83 85 87 84
92 88 87 90 96 97 96 96 97 96 96 96 97 97 96 98 96 98 97 92 89 95 98 98 96 98 94 96 94 91 86 91 88 90 85 84 83 85 85 83 79 80 80
96 88 86 92 90 89 93 94 90 89 93 96 96 97 97 97 96 98 98 95 95 83 88 95 97 96 97 96 93 90 87 90 90 90 88 86 88 83 83 82 80 79 78
97 93 93 87 88 85 86 87 92 86 87 88 88 91 96 95 94 94 97 97 97 77 69 79 90 94 96 98 92 87 89 87 91 94 95 93 90 86 83 82 82 82 80
97 92 82 78 86 90 89 94 94 90 90 91 91 92 96 95 93 92 92 94 85 85 80 74 88 95 94 97 94 89 94 92 94 96 98 98 94 90 87 85 81 81 81
81 80 80 90 91 88 91 93 95 93 92 92 91 92 94 95 96 95 94 93 84 88 83 72 65 76 76 89 89 89 89 90 90 92 94 96 96 95 94 96 96 94 92
82 82 89 86 88 88 89 90 92 91 88 94 92 93 94 96 96 97 97 96 90 85 85 83 74 72 73 65 70 72 73 88 93 93 94 94 94 94 93 93 95 98 98
85 87 88 88 91 92 89 90 90 89 89 90 92 93 93 93 98 97 97 98 98 96 95 88 86 78 78 75 71 74 74 76 82 94 93 93 94 93 93 96 96 97 96
88 84 87 85 91 87 84 89 87 88 87 91 90 91 93 84 93 95 97 97 96 96 96 92 92 82 80 84 87 78 69 61 76 72 89 96 95 95 97 97 98 98 98
86 88 87 88 89 85 82 89 84 86 83 84 91 91 92 90 91 94 94 96 96 91 97 96 96 94 87 88 87 74 72 81 64 72 86 97 98 97 96 97 99 100 100
87 87 87 83 84 82 84 81 86 87 84 79 79 86 90 90 89 88 91 95 96 96 97 98 97 96 97 93 86 84 82 90 79 66 80 91 97 98 98 98 98 99 100
85 86 86 86 84 75 74 83 80 87 87 88 78 74 72 81 84 83 90 93 94 96 97 98 98 98 98 97 98 93 93 94 91 95 87 98 98 99 99 98 98 98 99
85 84 84 83 83 60 82 78 74 83 87 88 86 79 73 83 80 80 80 76 89 96 95 98 99 99 97 97 96 96 97 97 97 94 93 95 96 98 98 98 97 97 97
87 87 87 87 89 74 80 74 75 88 88 89 90 85 66 77 86 87 79 79 83 86 89 93 96 97 96 94 92 91 91 94 96 94 97 94 97 96 96 98 97 98 98
92 92 89 88 91 83 86 80 77 87 90 90 89 90 84 85 90 82 82 86 89 92 87 93 97 96 96 93 90 90 92 95 96 95 90 94 96 97 96 96 97 97 96
92 93 90 86 86 88 90 84 83 91 92 90 77 74 82 87 86 80 79 84 88 85 79 79 80 80 87 90 83 91 96 96 94 95 79 87 85 96 95 80 86 92 93
91 89 89 92 87 92 92 90 89 96 92 94 81 76 87 85 86 78 81 86 89 84 92 86 77 74 79 80 90 86 95 94 94 93 82 76 87 79 72 96 94 85 91

GFSMA_sfc_rhum_279.txt.gz
RH
98 96 93 97 97 97 97 96 93 90 85 87 88 84 81 74 72 72 77 78 83 80 77 74 75 75 76 75 74 74 73 75 72 71 70 70 70 72 72 70 71 69 72
97 98 97 96 97 97 95 96 96 96 94 88 82 81 72 77 74 83 77 75 84 79 76 77 78 78 75 74 75 74 73 75 75 72 74 76 77 75 72 72 72 72 73
94 95 98 98 91 96 95 97 96 97 98 94 94 90 85 86 88 83 89 91 82 80 76 74 79 80 80 74 74 79 80 79 80 80 80 79 79 78 76 75 75 76 78
92 94 92 96 95 98 98 98 97 96 96 98 93 87 92 90 91 92 93 92 90 77 82 75 75 78 76 74 77 79 82 84 82 82 84 83 82 81 79 78 78 81 83
87 90 94 92 92 94 97 97 97 97 96 94 89 90 93 97 96 86 90 91 94 92 93 80 77 78 79 75 74 78 81 83 84 84 84 85 85 85 85 84 84 84 85
90 88 92 94 98 98 98 99 98 99 96 96 85 80 98 96 96 97 97 93 97 93 95 94 95 86 82 83 86 83 90 80 82 81 84 86 86 86 86 87 86 86 86
86 92 96 94 93 95 93 92 95 92 95 96 96 88 98 97 95 98 98 98 95 95 97 98 99 98 96 89 87 83 85 78 79 82 83 82 88 87 88 89 89 87 87
89 91 95 94 92 94 95 92 93 96 96 96 95 97 96 96 96 95 97 95 91 97 96 95 96 96 96 97 94 82 85 82 75 77 83 83 84 86 88 90 91 91 88
85 90 92 93 93 96 97 94 94 94 95 94 94 96 94 94 97 96 90 97 94 98 95 95 94 95 98 97 94 89 86 89 81 76 81 85 84 83 84 86 89 91 90
91 92 93 96 96 98 97 97 97 97 95 94 97 97 94 93 94 92 96 95 96 96 98 99 94 92 95 97 92 84 86 90 89 83 78 82 85 85 84 84 83 86 87
96 92 94 96 96 98 97 96 96 96 97 96 97 97 97 98 98 98 96 84 88 95 97 98 98 98 95 95 98 94 89 86 87 89 87 84 83 85 85 84 83 85 87
97 93 92 94 90 89 93 93 90 89 94 98 97 97 96 97 94 98 98 94 96 89 73 89 99 100 99 99 90 87 90 93 92 93 91 90 86 82 83 82 84 82 82
98 96 93 90 88 91 89 93 92 90 90 88 89 95 96 95 95 95 97 96 98 83 75 73 99 97 94 97 98 90 87 90 93 95 94 92 90 88 85 84 84 79 76
98 95 84 87 92 91 95 95 94 92 93 92 92 94 96 96 96 96 94 94 90 92 85 78 83 95 97 98 94 89 94 94 94 94 95 96 96 94 90 87 83 82 80
91 85 84 93 92 92 93 92 95 93 93 94 93 93 95 96 97 97 96 96 84 88 84 76 77 71 76 80 90 94 96 94 94 96 98 97 98 96 94 93 90 88 90
85 86 93 92 91 91 91 90 93 93 92 95 95 95 96 98 98 98 98 97 96 88 85 87 79 80 76 72 71 78 78 86 89 94 95 94 94 97 97 97 98 96 98
86 90 92 92 92 91 90 92 91 90 89 93 94 93 94 94 97 97 98 97 98 97 94 93 93 86 84 86 82 80 73 72 79 85 94 95 93 94 95 96 97 98 98
91 92 92 91 93 91 90 91 89 88 91 92 92 93 93 85 93 94 96 95 95 97 97 93 94 90 87 89 92 86 74 66 78 78 86 91 93 98 96 96 97 97 98
92 92 91 92 92 88 86 91 89 87 86 92 92 92 93 90 91 93 95 95 96 91 97 97 96 97 95 96 93 85 76 84 68 74 86 95 99 98 97 98 99 100 100
92 93 93 91 90 87 87 88 88 88 87 84 80 91 93 92 90 90 92 94 95 96 97 98 98 98 98 96 97 95 83 91 92 72 83 98 98 98 99 99 100 100 100
91 90 91 92 90 86 79 89 86 88 88 88 82 78 74 81 83 86 92 93 94 96 98 98 98 99 98 98 97 98 96 96 83 93 93 98 99 100 99 98 96 98 99
93 93 91 90 85 68 85 81 78 84 88 89 87 86 74 83 86 82 83 79 87 95 95 98 98 99 97 98 97 96 96 94 89 95 97 96 98 96 96 98 96 96 96
92 92 92 93 91 78 84 80 77 89 90 89 90 92 78 75 88 88 77 72 81 85 88 94 95 97 97 95 93 92 92 94 96 95 96 97 98 96 97 95 96 96 96
94 95 93 92 92 83 87 81 79 88 91 90 91 88 93 86 92 90 83 81 83 89 89 93 97 97 94 96 94 91 92 96 97 98 93 96 97 98 97 96 98 97 97
95 94 92 93 92 90 90 87 86 91 93 90 89 74 92 88 85 83 82 82 83 76 74 80 80 80 83 91 89 95 96 95 95 95 89 88 88 92 97 84 82 95 93
92 93 93 92 88 90 92 91 91 96 94 94 89 73 78 87 90 86 84 86 86 80 90 91 84 80 79 81 88 92 95 94 95 92 91 76 88 73 80 97 92 82 93

GFSMA_sfc_rhum_285.txt.gz
RH
69 66 61 61 64 60 59 59 60 58 62 59 52 54 57 50 49 45 46 71 79 78 76 73 75 76 76 74 74 73 74 73 72 72 71 72 70 73 75 75 74 75 75
69 67 80 66 64 61 59 62 69 64 65 60 58 56 54 49 53 57 45 46 76 81 79 77 76 78 76 73 73 74 74 74 73 72 71 75 75 74 76 75 76 76 77
74 75 70 69 69 66 73 68 68 69 65 58 64 56 54 57 54 54 53 50 50 73 79 81 79 81 80 76 75 74 78 79 75 74 76 77 76 76 75 74 73 74 75
75 74 67 61 66 68 66 66 65 62 63 63 58 52 53 52 57 59 55 56 54 47 65 84 82 79 80 73 78 78 80 81 82 80 79 78 76 76 77 77 75 76 75
66 69 62 61 67 66 67 66 66 71 84 81 61 54 52 54 60 53 61 60 64 63 51 68 85 82 75 67 75 80 81 82 86 83 81 82 80 80 80 80 80 81 80
68 69 66 72 74 77 82 80 83 87 89 69 58 50 54 60 64 62 61 59 64 64 59 64 60 60 82 74 76 80 79 85 83 84 80 83 84 83 82 83 84 84 84
71 78 89 83 73 89 70 74 80 89 97 73 91 56 58 64 59 61 61 57 63 62 66 66 64 61 66 84 80 80 79 82 83 82 82 82 85 85 85 85 86 86 86
75 83 89 90 83 88 82 79 84 84 79 76 72 62 56 56 59 54 55 58 60 59 62 65 66 67 67 61 68 83 78 79 92 87 82 86 83 85 87 87 88 88 86
76 80 88 86 87 89 92 82 84 85 88 73 73 84 75 56 54 54 60 54 60 57 56 64 65 69 70 65 74 74 81 87 83 90 85 86 85 84 88 88 90 90 90
66 72 78 80 78 84 84 76 70 75 78 82 66 67 74 66 72 53 50 50 53 56 58 52 51 58 63 63 72 77 85 89 84 81 78 82 84 83 85 88 89 90 90
72 75 81 82 80 69 77 79 78 80 72 69 67 84 83 87 72 63 53 50 48 50 54 51 54 58 60 62 60 69 84 89 87 86 85 83 84 82 79 81 85 89 90
70 78 76 76 76 74 74 68 73 74 76 74 66 69 62 62 61 61 60 53 47 48 46 46 54 59 62 60 66 81 85 90 91 90 88 87 86 82 78 77 80 82 85
70 76 77 77 68 73 72 73 74 74 73 68 74 60 59 58 58 56 56 50 48 44 43 46 53 61 63 62 61 79 84 92 93 95 95 93 91 89 84 83 80 81 78
68 76 72 69 70 68 68 73 62 59 68 62 71 72 58 57 55 56 53 53 44 42 44 54 46 48 52 55 68 86 70 93 94 95 94 95 94 92 90 89 87 84 82
69 77 71 71 68 69 71 74 60 65 68 66 65 67 59 58 58 57 59 58 57 48 43 46 47 49 48 50 62 55 52 93 92 93 96 96 96 94 94 94 93 92 90
77 78 73 70 69 68 70 72 65 68 67 58 54 70 70 61 60 60 60 60 61 58 53 47 45 49 55 50 54 54 50 78 81 86 89 93 96 96 95 96 96 96 95
79 78 77 73 72 71 70 72 72 71 71 72 71 71 73 75 58 57 60 60 60 62 58 46 54 53 63 62 56 57 50 49 43 88 93 94 94 97 96 96 96 96 96
75 76 74 74 73 72 72 73 70 66 71 71 70 72 68 57 70 68 53 69 65 69 67 73 65 55 65 68 66 66 52 41 48 78 93 97 98 95 95 97 98 98 98
76 68 73 75 74 72 72 73 72 70 70 70 67 69 69 72 71 61 63 57 54 56 60 62 62 56 59 60 64 61 60 62 48 71 79 94 98 97 98 98 98 99 100
76 71 70 72 72 71 68 68 68 69 66 63 65 66 68 69 69 69 62 72 68 60 60 54 52 53 56 60 62 58 54 49 49 46 64 88 93 97 98 100 99 99 100
79 72 73 72 71 66 56 68 66 65 66 64 62 63 60 63 79 75 59 70 74 59 49 48 48 52 52 54 62 59 57 53 53 57 52 50 52 58 66 91 92 95 99
78 76 75 75 74 57 77 82 71 63 67 68 66 66 62 64 69 85 82 74 74 67 64 48 50 56 69 64 60 59 57 55 53 58 56 47 54 51 57 57 97 95 97
86 79 75 75 75 72 87 87 85 58 59 62 65 65 59 44 66 63 79 70 64 78 82 73 72 66 71 70 77 74 69 66 57 50 61 48 56 54 59 67 95 94 95
91 90 76 76 76 71 91 91 85 62 64 65 64 63 64 65 66 67 64 60 54 55 52 50 64 66 67 69 76 79 77 75 59 50 68 54 51 55 60 58 95 95 96
87 97 92 80 78 73 90 89 82 64 64 69 68 66 62 59 77 84 69 62 60 55 54 68 77 80 82 82 74 57 58 56 49 46 58 55 49 52 50 58 61 95 96
85 94 97 94 84 85 92 90 80 66 66 61 65 65 78 67 88 86 71 64 62 53 52 53 51 58 71 60 80 66 53 55 51 48 55 46 42 47 46 61 66 59 58

GFSMA_sfc_rhum_291.txt.gz
RH
42 39 39 36 40 45 50 54 38 36 42 39 36 34 33 34 36 38 67 80 83 81 76 74 74 77 75 73 72 74 71 71 68 69 69 71 72 75 77 79 76 75 78
44 39 46 46 51 66 69 55 42 45 43 35 38 42 47 40 51 47 30 64 82 82 81 78 78 78 77 76 73 74 72 71 70 70 72 76 76 75 78 76 75 75 77
55 58 48 46 53 58 57 49 47 66 46 50 62 43 40 55 40 41 34 37 59 83 83 81 82 82 81 78 78 75 77 77 75 76 76 74 76 77 77 79 78 78 79
56 55 51 48 44 50 47 58 84 54 73 70 61 64 58 56 57 55 45 51 59 63 81 84 82 81 82 78 80 79 80 80 80 79 79 76 74 75 78 80 78 80 79
48 54 48 75 73 57 59 51 82 64 48 46 51 56 57 46 53 42 53 54 59 52 60 83 82 81 79 72 78 82 84 87 86 82 80 79 79 79 80 80 80 80 80
56 54 54 65 53 74 53 49 55 48 50 52 46 41 50 51 59 62 53 49 58 54 60 80 82 61 82 78 79 78 84 81 88 86 81 84 81 81 82 83 82 82 81
49 63 48 51 53 53 55 58 58 64 54 70 58 42 52 38 36 45 38 54 44 37 46 50 53 82 77 82 80 81 80 81 82 88 83 80 84 81 82 83 83 83 84
54 57 64 50 52 53 67 65 75 86 72 68 61 50 52 63 44 44 38 40 41 40 42 49 54 56 60 62 70 81 82 80 82 84 84 84 84 84 82 84 85 85 85
55 58 60 63 67 65 50 61 60 73 78 57 53 72 78 86 63 52 42 36 43 36 36 51 51 52 55 52 65 73 82 83 81 82 85 90 88 86 86 84 86 86 86
54 52 55 62 70 92 78 69 61 70 82 64 53 62 61 64 52 81 68 47 38 40 38 37 35 48 48 52 64 75 84 81 82 81 86 92 91 89 85 87 87 86 86
57 51 56 60 68 54 63 69 66 70 56 51 42 67 72 75 55 51 55 58 65 50 37 38 32 34 55 45 51 69 83 83 83 84 84 88 91 88 91 86 86 85 82
48 59 58 66 66 65 60 54 57 59 61 72 60 61 87 87 85 83 78 66 56 35 32 28 28 32 39 41 63 80 81 86 88 87 87 88 88 86 88 86 87 83 76
44 80 62 67 54 59 58 56 60 60 59 63 70 58 65 67 56 43 43 41 34 24 24 24 30 34 37 38 78 69 81 87 90 90 89 88 89 88 87 85 83 84 84
42 46 52 53 54 56 52 50 46 47 48 53 58 62 53 41 41 41 39 34 30 23 29 32 28 32 35 58 75 67 65 88 90 92 93 93 93 92 90 86 87 86 85
50 53 54 60 55 56 53 50 41 48 57 57 52 55 53 36 31 30 31 32 36 36 28 43 31 42 35 59 65 47 66 92 89 89 93 94 95 94 94 93 91 87 85
60 54 64 58 57 57 54 55 44 49 56 45 34 51 50 34 36 37 37 37 37 38 38 27 31 36 48 42 52 43 44 84 90 90 90 95 95 94 94 94 93 91 90
67 70 77 69 61 59 54 58 60 54 55 52 50 53 56 58 43 36 36 36 38 40 42 34 33 48 52 51 44 44 44 43 46 87 86 85 90 91 93 94 94 94 94
63 78 78 77 65 61 57 61 57 46 55 56 55 57 53 42 57 54 40 57 48 52 48 60 53 42 49 48 55 53 42 27 46 88 92 92 92 92 92 96 96 96 97
64 70 79 79 68 61 60 61 60 57 55 54 54 57 53 56 59 50 53 46 38 40 44 41 44 34 36 39 48 53 55 50 35 82 92 93 93 91 93 94 96 98 99
72 72 74 82 68 61 55 56 59 60 56 52 53 54 54 56 57 57 52 56 56 54 47 43 35 32 34 39 43 42 40 40 37 30 60 60 79 89 98 96 98 99 100
71 70 71 69 66 57 44 57 55 56 58 54 53 54 53 61 68 66 48 60 65 52 37 33 31 30 33 44 49 39 42 37 44 39 38 38 49 56 67 96 90 98 99
90 83 82 76 76 53 61 72 60 50 56 58 58 57 55 62 62 74 70 70 66 61 62 45 38 47 58 52 43 47 45 43 45 68 53 42 37 36 34 79 94 98 97
83 85 74 77 79 72 91 78 76 47 50 55 57 56 48 33 57 58 79 81 74 67 65 64 63 58 63 61 66 66 65 66 54 42 50 41 34 34 33 79 94 94 94
92 79 71 75 82 86 85 86 82 64 59 55 55 54 54 53 53 54 52 60 54 58 60 51 52 48 51 60 65 63 70 70 58 50 56 50 37 36 33 65 93 93 93
74 70 66 81 84 83 88 92 88 63 56 66 67 55 54 52 76 76 60 58 55 48 61 62 60 64 69 74 65 48 46 43 41 35 49 41 39 36 36 37 76 95 96
72 69 80 81 83 89 93 93 82 53 71 78 71 72 74 68 75 80 60 57 58 51 45 44 48 61 73 62 78 61 42 44 39 37 49 42 37 36 39 35 65 82 71